This is the latest recevied weather packets stored in our database for station/object GW1495. If no packets are shown the sender has not sent any weather packets the latest 10 day(s).
| Time | Temp. | Humidity | Pressure | Rain* | Wind** | Luminosity | Snow |
|---|---|---|---|---|---|---|---|
| 1777371509 | 12.78° C | 99% | 1022.6 hPa | 12.45 mm | - | - | - |
| 1777367892 | 12.78° C | 99% | 1023.3 hPa | 11.94 mm | - | - | - |
| 1777366828 | 12.78° C | 99% | 1023 hPa | 11.68 mm | - | - | - |
| 1777366464 | 12.78° C | 99% | 1024 hPa | 11.43 mm | - | - | - |
| 1777365750 | 12.78° C | 99% | 1023.3 hPa | 10.67 mm | - | - | - |
| 1777363960 | 12.78° C | 99% | 1019.3 hPa | 7.11 mm | - | - | - |
| 1777361788 | 12.78° C | 98% | 1019.9 hPa | 5.08 mm | - | - | - |
| 1777360346 | 12.78° C | 97% | 1020.3 hPa | 3.05 mm | - | - | - |
| 1777356025 | 15.56° C | 79% | 1022.6 hPa | 0 mm | - | - | - |
| 1777350613 | 15.56° C | 71% | 1020.9 hPa | 0 mm | - | - | - |
| 1777349561 | 16.11° C | 70% | 1020.9 hPa | 0 mm | - | - | - |
| 1777348490 | 15.56° C | 73% | 1020.9 hPa | 0 mm | - | - | - |
| 1777347395 | 15.56° C | 72% | 1021.3 hPa | 0 mm | - | - | - |
| 1777346688 | 15.56° C | 72% | 1021.3 hPa | 0 mm | - | - | - |
| 1777343791 | 16.67° C | 74% | 1021.3 hPa | 0 mm | - | - | - |
| 1777340930 | 17.78° C | 71% | 1020.9 hPa | 0 mm | - | - | - |
| 1777340547 | 17.78° C | 71% | 1020.9 hPa | 0 mm | - | - | - |
| 1777340207 | 17.78° C | 71% | 1020.9 hPa | 0 mm | - | - | - |
| 1777337298 | 18.89° C | 67% | 1020.3 hPa | 0 mm | - | - | - |
| 1777335890 | 19.44° C | 68% | 1019.9 hPa | 0 mm | - | - | - |
| 1777332627 | 22.22° C | 59% | 1019.9 hPa | 0 mm | - | - | - |
| 1777330491 | 24.44° C | 45% | 1019.9 hPa | 0 mm | - | - | - |
| 1777326861 | 25.56° C | 46% | 1019.6 hPa | 0 mm | - | - | - |
| 1777326171 | 25.56° C | 41% | 1019.6 hPa | 0 mm | - | - | - |
| 1777322919 | 28.89° C | 29% | 1019.9 hPa | 0 mm | - | - | - |
* Rain since midnight (hover to see other rain measurements)
** Current wind speed in m/s (hover to see current wind gust speed)